DW4395 Weather Reports


time (UTC)temp
C
wind
direction
speed
KPH
gust
KPH
rain 1hr
cm
rain 24hr
cm
rain mn
cm
humidity
%
barometer
mb
20260510094521 17 0.0 3.2 0.00 0.00 0.00 81 1031.3
20260510093520 17 0.0 1.6 0.00 0.00 0.00 81 1031.2
20260510092521 17 180 1.6 3.2 0.00 0.00 0.00 80 1031.0
20260510091523 17 180 1.6 3.2 0.00 0.00 0.00 79 1030.9
20260510090522 17 180 1.6 3.2 0.00 0.00 0.00 79 1030.6
20260510085521 17 180 1.6 4.8 0.00 0.00 0.00 78 1030.3
20260510084522 17 0.0 3.2 0.00 0.00 0.00 78 1030.2
20260510083521 17 0.0 1.6 0.00 0.00 0.00 77 1030.0
20260510082521 18 0.0 1.6 0.00 0.00 0.00 76 1030.0
20260510081521 18 0.0 3.2 0.00 0.00 0.00 76 1029.9
20260510080526 18 0.0 3.2 0.00 0.00 0.00 75 1029.8
20260510075521 18 158 1.6 3.2 0.00 0.00 0.00 74 1029.5
20260510074520 19 180 1.6 3.2 0.00 0.00 0.00 73 1029.4
20260510073701 19 180 1.6 3.2 0.00 0.00 0.00 72 1029.5
20260510072521 20 180 1.6 3.2 0.00 0.00 0.00 71 1029.3
20260510071520 20 180 1.6 4.8 0.00 0.00 0.00 70 1029.1
20260510070522 20 158 1.6 4.8 0.00 0.00 0.00 69 1029.0
20260510065521 21 135 1.6 4.8 0.00 0.00 0.00 67 1029.0
20260510064523 21 180 1.6 4.8 0.00 0.00 0.00 65 1028.9
20260510063522 21 180 1.6 3.2 0.00 0.00 0.00 63 1028.7
20260510062521 22 158 1.6 3.2 0.00 0.00 0.00 60 1028.6
20260510061521 22 203 1.6 3.2 0.00 0.00 0.00 61 1028.6
20260510060520 22 180 1.6 4.8 0.00 0.00 0.00 61 1028.4
20260510055521 22 180 1.6 3.2 0.00 0.00 0.00 61 1028.3
20260510054520 22 135 1.6 4.8 0.00 0.00 0.00 61 1028.3
20260510053520 22 180 1.6 3.2 0.00 0.00 0.00 59 1028.2
20260510052521 23 203 1.6 6.4 0.00 0.00 0.00 58 1028.2
20260510051520 23 0.0 1.6 0.00 0.00 0.00 55 1028.1
20260510050521 23 180 1.6 3.2 0.00 0.00 0.00 56 1028.1
20260510045702 23 180 1.6 3.2 0.00 0.00 0.00 56 1028.0
20260510044520 23 158 1.6 3.2 0.00 0.00 0.00 55 1028.1
20260510043520 23 0.0 1.6 0.00 0.00 0.00 55 1027.9
20260510042702 23 0.0 3.2 0.00 0.00 0.00 54 1028.0
20260510041520 23 180 1.6 3.2 0.00 0.00 0.00 56 1028.0
20260510040520 23 158 1.6 4.8 0.00 0.00 0.00 56 1028.0
20260510035521 23 0.0 3.2 0.00 0.00 0.00 56 1027.9
20260510034700 22 158 1.6 3.2 0.00 0.00 0.00 55 1028.1
20260510033522 22 0.0 1.6 0.00 0.00 0.00 57 1028.1
20260510032521 22 180 1.6 4.8 0.00 0.00 0.00 57 1028.2
20260510031520 22 158 1.6 4.8 0.00 0.00 0.00 55 1028.3
20260510030521 22 0.0 3.2 0.00 0.00 0.00 55 1028.3
20260510025520 22 203 1.6 4.8 0.00 0.00 0.00 56 1028.5
20260510024521 22 203 1.6 3.2 0.00 0.00 0.00 55 1028.7
20260510023519 22 203 1.6 3.2 0.00 0.00 0.00 58 1028.7
20260510022521 22 203 1.6 3.2 0.00 0.00 0.00 55 1028.8
20260510021522 22 0.0 3.2 0.00 0.00 0.00 58 1029.0
20260510020703 22 0.0 4.8 0.00 0.00 0.00 60 1029.0
20260510015701 22 0.0 1.6 0.00 0.00 0.00 61 1029.2
20260510014521 21 0.0 1.6 0.00 0.00 0.00 62 1029.3
20260510013521 21 0.0 3.2 0.00 0.00 0.00 62 1029.5
20260510012520 21 0.0 1.6 0.00 0.00 0.00 65 1029.8
20260510011520 21 0.0 0.0 0.00 0.00 0.00 65 1029.9
20260510010522 20 0.0 1.6 0.00 0.00 0.00 67 1030.0
20260510005519 20 0.0 1.6 0.00 0.00 0.00 68 1030.1
20260510004523 20 0.0 1.6 0.00 0.00 0.00 69 1030.2
20260510003522 19 0.0 1.6 0.00 0.00 0.00 72 1030.4
20260510002523 18 0.0 1.6 0.00 0.00 0.00 73 1030.4
20260510001520 18 0.0 1.6 0.00 0.00 0.00 70 1030.4
20260510000522 18 0.0 1.6 0.00 0.00 0.00 72 1030.4
20260509235525 17 0.0 1.6 0.00 0.00 0.00 77 1030.3
20260509234523 16 0.0 0.0 0.00 0.00 0.00 80 1030.4
20260509233523 15 0.0 0.0 0.00 0.00 0.00 81 1030.3
20260509232520 14 0.0 1.6 0.00 0.00 0.00 87 1030.4
20260509231521 13 0.0 0.0 0.00 0.00 0.00 90 1030.2
20260509230703 12 0.0 0.0 0.00 0.00 0.00 94 1030.1
20260509225522 11 0.0 0.0 0.00 0.00 0.00 97 1030.0
20260509224703 11 0.0 0.0 0.00 0.00 0.00 98 1030.1
20260509223521 10 0.0 0.0 0.00 0.00 0.00 99 1030.2
20260509222521 10 0.0 0.0 0.00 0.00 0.00 99 1030.0
20260509221522 8 0.0 0.0 0.00 0.00 0.00 98 1029.9
20260509220522 7 0.0 1.6 0.00 0.00 0.00 98 1029.9
20260509215523 7 0.0 0.0 0.00 0.00 0.00 98 1029.8
20260509214522 6 0.0 0.0 0.00 0.00 0.00 98 1029.7
20260509213521 5 0.0 0.0 0.00 0.00 0.00 97 1029.6
20260509212701 5 0.0 0.0 0.00 0.00 0.00 97 1029.6
20260509211521 4 0.0 0.0 0.00 0.00 0.00 96 1029.4
20260509210843 3 0.0 0.0 0.00 0.00 0.00 96 1029.2
20260509205702 3 0.0 0.0 0.00 0.00 0.00 95 1029.2
20260509204520 3 0.0 0.0 0.00 0.00 0.00 96 1029.0
20260509203522 3 0.0 0.0 0.00 0.00 0.00 95 1028.9
20260509202521 3 0.0 0.0 0.00 0.00 0.00 95 1028.8
20260509201522 4 0.0 0.0 0.00 0.00 0.00 95 1028.9
20260509200522 4 0.0 0.0 0.00 0.00 0.00 95 1028.8
20260509195521 4 0.0 0.0 0.00 0.00 0.00 95 1028.6
20260509194521 4 0.0 0.0 0.00 0.00 0.00 95 1028.5
20260509193522 3 0.0 0.0 0.00 0.00 0.00 95 1028.2
20260509192522 3 0.0 0.0 0.00 0.00 0.00 95 1028.2
20260509191521 3 0.0 0.0 0.00 0.00 0.00 95 1028.1
20260509190523 4 0.0 0.0 0.00 0.00 0.00 95 1028.1
20260509185521 4 0.0 0.0 0.00 0.00 0.00 95 1028.0
20260509184521 4 0.0 0.0 0.00 0.00 0.00 95 1027.9
20260509183521 4 0.0 0.0 0.00 0.00 0.00 95 1027.8
20260509182522 5 0.0 0.0 0.00 0.00 0.00 95 1027.8
20260509181524 4 0.0 0.0 0.00 0.00 0.00 96 1027.7
20260509180523 4 0.0 0.0 0.00 0.00 0.00 95 1027.7
20260509175522 4 0.0 0.0 0.00 0.00 0.00 95 1027.7
20260509174522 4 0.0 0.0 0.00 0.00 0.00 95 1027.5
20260509173523 4 0.0 0.0 0.00 0.00 0.00 95 1027.6
20260509172702 3 0.0 0.0 0.00 0.00 0.00 94 1027.5
20260509171522 3 0.0 0.0 0.00 0.00 0.00 94 1027.5
20260509170522 3 0.0 0.0 0.00 0.00 0.00 94 1027.3
20260509165521 3 0.0 0.0 0.00 0.00 0.00 93 1027.2
20260509164521 4 0.0 0.0 0.00 0.00 0.00 94 1027.2
20260509163521 4 0.0 0.0 0.00 0.00 0.00 94 1027.2
20260509162702 4 0.0 0.0 0.00 0.00 0.00 94 1027.3
20260509161521 4 0.0 0.0 0.00 0.00 0.00 93 1027.4
20260509160521 5 0.0 0.0 0.00 0.00 0.00 93 1027.5
20260509155702 5 0.0 0.0 0.00 0.00 0.00 94 1027.4
20260509154522 5 0.0 0.0 0.00 0.00 0.00 93 1027.4
20260509153522 5 0.0 0.0 0.00 0.00 0.00 93 1027.4
20260509152521 5 0.0 0.0 0.00 0.00 0.00 93 1027.4
20260509151521 5 0.0 0.0 0.00 0.00 0.00 93 1027.4
20260509150521 5 0.0 0.0 0.00 0.00 0.00 92 1027.5
20260509145701 5 0.0 0.0 0.00 0.00 0.00 92 1027.3
20260509144521 5 0.0 0.0 0.00 0.00 0.00 93 1027.3
20260509143521 5 0.0 0.0 0.00 0.00 0.00 92 1027.3
20260509142520 5 0.0 0.0 0.00 0.00 0.00 92 1027.3
20260509141702 5 0.0 0.0 0.00 0.00 0.00 91 1027.3
20260509140702 5 0.0 0.0 0.00 0.00 0.00 91 1027.2
20260509135522 6 0.0 0.0 0.00 0.00 0.00 92 1027.3
20260509134703 6 0.0 0.0 0.00 0.00 0.00 91 1027.1
20260509133521 6 0.0 0.0 0.00 0.00 0.00 91 1027.1
20260509132521 6 0.0 0.0 0.00 0.00 0.00 91 1027.2
20260509131521 6 0.0 0.0 0.00 0.00 0.00 90 1027.1
20260509130521 6 0.0 0.0 0.00 0.00 0.00 91 1027.1
20260509125522 6 0.0 0.0 0.00 0.00 0.00 89 1027.1
20260509124522 6 0.0 0.0 0.00 0.00 0.00 89 1027.1
20260509123521 6 0.0 0.0 0.00 0.00 0.00 89 1027.0
20260509122701 7 0.0 0.0 0.00 0.00 0.00 89 1027.0
20260509121520 7 0.0 0.0 0.00 0.00 0.00 89 1027.1
20260509120522 7 0.0 0.0 0.00 0.00 0.00 88 1027.1
20260509115842 7 0.0 0.0 0.00 0.00 0.00 88 1027.1
20260509114521 7 0.0 0.0 0.00 0.00 0.00 87 1027.1
20260509113521 7 0.0 0.0 0.00 0.00 0.00 86 1027.0
20260509112520 8 0.0 0.0 0.00 0.00 0.00 85 1027.0
20260509111521 8 0.0 0.0 0.00 0.00 0.00 85 1027.0
20260509110522 8 0.0 0.0 0.00 0.00 0.00 85 1027.0
20260509105521 8 0.0 0.0 0.00 0.00 0.00 85 1026.9
20260509104521 9 0.0 0.0 0.00 0.00 0.00 83 1026.9
20260509103521 9 0.0 0.0 0.00 0.00 0.00 83 1026.8
20260509102703 10 0.0 0.0 0.00 0.00 0.00 82 1026.6
20260509101701 10 0.0 0.0 0.00 0.00 0.00 82 1026.6
20260509100520 10 0.0 0.0 0.00 0.00 0.00 81 1026.5
20260509095521 11 0.0 1.6 0.00 0.00 0.00 82 1026.4